Wind_Speed
12 13 13 13 13 13 13 12 12 13 13 14 15 15 15 16 16 18 18 19 20 20 21 21 21 21 22 23 23 24 24 24 24 25 24 24 24 24 24 25 24 25 25 25
13 14 13 13 12 12 12 12 12 13 13 14 14 14 15 15 16 17 18 18 19 19 20 20 20 21 21 22 22 22 22 23 22 21 20 21 21 21 21 22 22 22 22 21
12 13 13 12 11 12 11 11 12 12 12 12 12 13 14 14 15 15 16 17 17 18 18 18 18 19 19 19 19 20 20 19 19 19 19 18 18 18 18 18 19 19 19 19
12 12 12 11 11 10 10 10 10 11 11 11 11 12 13 13 14 14 15 15 15 16 15 15 16 17 17 17 17 17 17 16 16 16 16 16 16 16 16 17 18 17 18 18
12 12 11 10 9 9 10 9 9 9 9 10 11 11 12 12 13 14 13 13 13 14 14 14 14 15 16 15 15 15 15 15 14 14 14 15 15 15 15 16 16 16 17 16
11 11 10 9 9 9 9 8 8 8 8 9 10 10 11 11 12 12 12 13 13 13 13 13 14 14 13 13 14 14 13 13 13 13 13 13 13 13 13 13 12 12 13 12
10 10 9 8 8 7 7 7 7 7 7 8 9 9 10 11 11 11 12 12 12 12 12 12 12 12 12 12 12 12 12 12 12 12 11 12 12 12 12 12 11 11 11 11
10 9 8 7 7 6 6 6 6 6 6 7 8 9 9 10 10 10 10 11 11 11 11 11 11 11 12 12 11 11 11 11 11 11 11 11 11 11 11 11 11 11 11 11
10 9 8 7 7 6 5 5 5 5 6 6 7 8 8 8 9 9 9 10 11 11 11 11 11 11 11 11 11 11 11 10 10 10 10 10 10 10 10 9 10 10 10 10
10 9 8 7 7 6 5 4 5 5 5 6 6 6 7 7 8 8 9 10 11 11 12 12 12 12 11 11 11 12 11 11 10 10 10 10 10 10 10 9 9 9 9 9
9 8 8 7 6 5 4 4 4 4 5 5 5 6 6 7 8 8 8 9 10 11 12 12 12 12 12 12 12 11 11 11 11 10 10 10 10 10 10 10 10 10 9 9
9 8 8 7 6 5 4 4 3 3 4 4 4 5 6 7 7 8 9 10 11 11 11 12 12 12 12 13 12 12 11 11 11 11 11 10 11 11 10 10 10 10 10 10
9 9 8 7 6 5 4 3 2 2 3 3 4 4 5 6 7 7 8 10 11 12 12 13 12 12 12 12 13 13 12 12 12 11 11 11 10 10 10 10 9 9 9 9
9 8 7 7 6 4 3 2 2 1 2 3 3 4 5 6 7 7 8 10 11 12 13 13 13 13 13 13 13 13 13 12 12 12 12 12 12 11 11 10 9 9 9 9
9 8 7 7 6 4 3 3 2 0 1 2 3 4 5 6 7 7 8 9 11 12 13 13 13 13 13 14 14 14 13 13 13 13 13 12 12 12 11 10 10 10 9 9
10 9 8 6 6 4 4 3 2 1 1 2 3 4 4 5 6 7 8 9 10 12 13 13 13 13 14 14 15 14 13 13 14 14 14 13 13 12 12 11 11 10 10 10
10 9 8 7 6 5 4 3 3 2 2 2 3 4 4 5 6 7 8 9 10 12 13 13 14 14 14 14 14 14 14 13 14 14 14 14 13 13 13 12 12 11 11 11
10 9 8 8 7 6 5 4 3 3 2 2 3 4 4 5 6 7 8 9 10 11 12 13 13 14 14 14 14 14 14 14 14 14 14 14 14 13 13 13 13 12 12 11
11 10 9 9 8 7 6 5 4 3 2 2 2 3 4 5 6 7 7 8 9 10 11 12 13 13 14 14 14 14 14 14 14 14 14 14 14 14 13 13 13 13 13 13
12 11 10 10 8 7 6 5 4 4 3 3 3 3 4 5 5 7 7 8 9 10 11 12 13 13 13 14 14 14 14 14 14 15 15 15 14 14 14 13 13 13 14 13
14 13 11 10 9 8 7 6 5 4 4 3 3 3 4 5 6 7 8 9 10 11 11 12 13 13 14 14 14 15 15 15 15 15 15 15 15 14 14 14 14 14 14 14
14 13 12 11 10 8 7 6 5 5 4 3 3 4 4 5 6 7 8 9 10 11 12 12 13 14 14 15 15 16 16 16 16 16 16 16 16 15 15 15 15 15 15 15
14 14 12 11 10 9 7 6 6 5 4 4 4 4 5 5 6 7 8 9 11 12 12 13 14 15 15 16 16 17 17 17 17 17 17 17 17 17 17 16 17 17 17 17
15 14 13 11 10 9 8 7 5 4 4 4 4 4 5 6 7 8 9 10 11 12 13 14 15 16 16 17 17 18 18 18 18 18 18 19 19 19 18 18 19 20 19 19
15 14 12 11 9 8 7 6 5 4 3 3 3 4 5 6 8 9 10 11 12 13 14 15 16 17 18 18 18 19 19 19 20 20 21 21 21 21 22 22 22 22 22 21
15 13 12 11 9 8 7 5 4 3 2 2 3 4 6 7 8 10 11 12 13 14 15 16 17 18 19 20 20 21 21 21 21 22 23 23 23 24 24 24 24 23 23 23
15 13 12 10 9 8 6 5 3 2 0 2 3 5 6 8 9 11 12 13 14 15 16 17 18 19 20 21 22 22 23 23 24 24 24 25 25 26 25 25 25 25 25 25
Wind_Direction
266 270 273 274 274 271 270 275 280 283 286 290 292 296 296 294 294 296 296 297 298 298 299 299 298 297 296 294 292 290 289 290 289 286 285 284 284 282 281 283 282 283 285 282
270 271 272 272 274 275 273 274 280 284 286 291 293 296 297 296 296 298 299 301 302 301 301 300 300 299 298 298 297 294 292 291 291 291 290 288 286 285 285 285 286 287 287 285
272 272 271 272 275 276 275 276 283 287 288 291 294 298 299 300 302 303 304 305 305 305 305 304 304 303 303 303 302 301 299 297 295 294 293 296 294 290 288 288 287 287 287 285
272 272 271 272 273 276 277 280 284 289 291 292 297 301 304 305 307 309 310 310 310 311 311 311 309 309 307 307 308 307 306 305 303 301 298 302 300 297 296 296 293 291 292 287
268 271 274 275 275 276 277 284 288 291 294 297 301 303 307 310 312 314 316 318 319 318 317 316 314 313 312 312 313 314 312 309 306 303 304 306 307 305 305 304 299 295 295 294
263 268 268 270 275 278 279 282 290 295 299 301 306 308 313 316 318 320 321 322 324 325 324 322 322 321 319 319 319 318 316 314 312 310 310 312 313 313 312 314 311 305 303 300
256 262 264 268 272 274 277 286 294 299 302 306 310 315 316 319 323 326 328 328 330 332 330 329 329 329 330 329 328 327 325 323 321 318 317 316 319 319 314 316 319 319 318 314
244 253 261 263 264 266 275 287 296 301 305 310 315 319 321 323 328 333 336 339 341 341 341 339 338 338 339 339 339 338 335 331 327 323 323 323 323 323 320 319 319 321 322 321
241 248 254 258 257 258 270 283 293 302 309 315 319 325 331 334 338 342 347 349 349 350 351 352 350 347 344 344 345 345 346 346 345 343 340 339 336 335 335 331 330 332 330 329
243 249 253 258 259 261 268 283 294 301 312 320 329 338 348 350 350 351 352 354 356 357 356 354 354 353 351 349 351 350 354 355 357 356 355 355 355 355 353 350 348 346 345 342
241 246 251 257 259 259 267 287 301 309 320 328 338 350 356 359 360 1 2 1 2 2 2 2 3 3 3 5 4 4 3 2 359 356 353 353 356 358 360 3 6 2 360 356
238 243 246 250 253 255 267 284 298 313 332 343 354 2 3 7 10 10 11 10 9 8 7 8 8 9 10 10 12 12 11 10 9 8 5 0 359 359 360 2 6 7 6 5
233 237 238 240 242 247 258 269 287 315 338 350 360 8 13 15 16 18 19 18 18 17 17 16 16 14 12 11 13 13 12 12 13 12 12 10 7 6 4 3 3 4 6 8
226 231 233 233 233 237 239 245 261 313 350 2 13 18 19 20 23 24 23 20 20 21 21 22 22 22 19 16 13 12 15 16 15 13 11 10 8 7 7 8 6 359 358 359
221 225 226 222 221 220 214 214 213 230 15 26 36 31 31 29 28 27 24 21 22 22 22 22 23 22 20 18 16 16 17 19 19 18 15 13 11 11 11 9 7 5 2 0
213 216 216 216 211 200 193 191 184 154 73 49 46 36 33 30 27 26 26 24 24 22 20 19 19 19 18 19 20 20 21 22 21 20 19 18 15 15 13 8 6 6 2 0
204 205 204 200 191 185 181 175 164 140 104 63 50 38 32 28 25 25 25 24 23 23 22 20 19 18 19 20 22 23 24 22 20 20 18 16 15 15 14 11 9 7 4 2
194 192 191 187 181 177 173 166 153 137 113 68 45 38 36 34 30 27 25 24 22 21 20 18 18 19 20 20 19 20 21 19 17 15 13 13 11 10 8 9 9 7 6 4
190 187 183 177 173 170 166 161 154 144 127 91 62 47 38 35 32 28 24 22 19 16 15 15 16 16 15 15 15 15 17 16 14 11 8 7 6 6 5 3 2 2 360 359
185 181 176 172 169 165 160 157 150 138 124 105 84 59 43 37 32 27 23 18 14 12 11 11 11 12 11 12 12 11 9 9 8 6 4 2 1 1 0 359 357 356 355 353
178 175 173 170 168 164 159 153 144 134 122 105 85 63 47 38 32 26 20 16 14 12 10 8 8 9 9 8 6 5 4 3 2 1 360 359 358 357 356 354 352 349 345 343
173 171 169 167 164 160 155 149 141 131 119 104 82 63 49 35 26 20 16 13 11 9 7 6 6 5 5 4 2 1 359 358 356 355 354 353 353 351 349 347 344 342 340 339
167 166 165 163 161 158 155 150 140 128 111 95 76 57 41 28 18 12 10 8 6 5 4 3 2 1 0 359 358 357 355 353 352 350 348 346 344 343 342 340 338 335 333 331
163 164 164 163 160 157 155 149 138 123 106 86 64 46 32 20 11 7 4 2 1 1 0 359 358 357 356 354 353 351 350 349 347 345 343 341 339 336 333 331 330 328 325 323
163 163 163 162 161 161 158 150 139 124 105 75 48 30 19 11 7 4 3 0 360 358 357 355 355 354 353 352 350 349 347 345 343 341 339 337 335 332 329 327 326 324 322 319
163 162 162 162 160 160 159 153 144 130 102 50 24 14 9 4 1 358 357 356 355 353 351 350 350 351 350 349 347 345 344 343 341 339 336 334 332 331 330 328 326 324 321 319
165 166 167 166 165 166 165 164 163 161 84 9 2 358 356 353 352 351 351 351 350 349 348 347 347 347 347 346 345 343 342 341 339 337 335 333 331 330 328 327 325 324 321 319
Height
5808 5808 5807 5806 5806 5805 5805 5805 5804 5804 5802 5800 5798 5797 5795 5793 5791 5789 5786 5784 5781 5778 5775 5772 5770 5767 5764 5762 5759 5756 5754 5751 5748 5746 5744 5742 5739 5737 5735 5733 5731 5729 5727 5726
5805 5804 5803 5803 5803 5802 5802 5801 5800 5799 5798 5796 5794 5793 5791 5789 5787 5784 5782 5779 5776 5773 5770 5767 5764 5761 5758 5756 5753 5750 5747 5744 5742 5740 5738 5735 5733 5731 5729 5727 5725 5723 5721 5719
5801 5801 5800 5800 5800 5799 5799 5798 5797 5796 5795 5793 5791 5789 5787 5785 5783 5780 5777 5775 5771 5768 5765 5762 5759 5756 5753 5750 5747 5744 5741 5739 5736 5734 5732 5730 5728 5725 5723 5721 5719 5717 5716 5714
5798 5798 5798 5800 5797 5796 5796 5795 5794 5792 5791 5789 5788 5786 5784 5782 5779 5776 5773 5770 5767 5764 5761 5758 5755 5752 5749 5746 5743 5740 5737 5735 5732 5730 5728 5726 5723 5721 5719 5717 5714 5712 5711 5709
5795 5795 5795 5795 5794 5793 5793 5792 5791 5789 5788 5787 5785 5783 5781 5778 5775 5773 5770 5767 5764 5760 5757 5754 5751 5748 5745 5742 5740 5737 5734 5731 5729 5726 5724 5722 5719 5717 5714 5712 5710 5708 5706 5704
5792 5792 5792 5793 5792 5790 5791 5789 5788 5787 5785 5784 5782 5780 5778 5775 5772 5769 5767 5764 5761 5757 5754 5751 5748 5745 5742 5739 5737 5734 5731 5728 5725 5723 5721 5719 5716 5714 5712 5709 5707 5705 5703 5700
5789 5789 5790 5790 5788 5789 5789 5788 5786 5784 5783 5781 5779 5778 5775 5772 5769 5767 5764 5761 5758 5755 5752 5749 5746 5743 5740 5737 5734 5731 5728 5725 5723 5721 5718 5716 5713 5711 5709 5707 5705 5702 5700 5698
5786 5787 5789 5787 5786 5787 5786 5784 5783 5782 5781 5779 5777 5775 5772 5770 5767 5764 5761 5759 5756 5753 5750 5746 5743 5741 5738 5735 5732 5729 5726 5723 5721 5718 5716 5713 5711 5709 5707 5705 5703 5700 5698 5696
5785 5787 5785 5784 5784 5784 5783 5782 5781 5780 5779 5777 5775 5773 5770 5768 5765 5763 5760 5757 5754 5751 5748 5745 5742 5739 5736 5733 5731 5728 5725 5722 5720 5717 5715 5712 5710 5707 5705 5703 5701 5699 5697 5695
5781 5782 5782 5782 5782 5782 5781 5780 5779 5778 5777 5775 5773 5771 5769 5767 5764 5762 5760 5757 5754 5751 5748 5745 5741 5738 5735 5732 5730 5727 5724 5721 5719 5717 5714 5712 5709 5707 5704 5702 5700 5698 5696 5694
5779 5780 5780 5780 5780 5779 5779 5778 5778 5776 5775 5773 5772 5770 5768 5766 5764 5761 5759 5756 5753 5750 5747 5744 5741 5738 5735 5732 5729 5726 5724 5721 5719 5716 5714 5711 5709 5707 5704 5702 5700 5698 5696 5693
5777 5777 5778 5778 5778 5777 5777 5777 5776 5775 5774 5772 5771 5769 5767 5765 5763 5761 5759 5756 5753 5750 5747 5744 5741 5738 5735 5732 5730 5727 5724 5722 5719 5716 5713 5711 5709 5706 5704 5702 5700 5698 5695 5693
5774 5774 5775 5775 5776 5775 5776 5775 5775 5774 5773 5772 5770 5769 5767 5765 5763 5761 5759 5756 5754 5751 5748 5745 5741 5739 5736 5733 5731 5728 5725 5722 5719 5717 5714 5711 5709 5706 5704 5702 5700 5698 5696 5693
5771 5772 5772 5773 5774 5774 5774 5774 5774 5773 5772 5771 5770 5769 5767 5765 5764 5761 5759 5757 5754 5752 5749 5745 5743 5740 5737 5734 5731 5728 5725 5723 5720 5717 5715 5712 5709 5707 5704 5702 5700 5698 5696 5694
5768 5769 5771 5771 5772 5772 5773 5773 5773 5772 5772 5771 5770 5768 5767 5766 5764 5762 5760 5758 5755 5753 5750 5747 5744 5741 5738 5735 5732 5729 5726 5724 5721 5718 5715 5713 5710 5707 5705 5702 5700 5698 5696 5694
5766 5767 5768 5769 5770 5771 5771 5772 5772 5772 5771 5770 5770 5769 5767 5766 5764 5763 5761 5759 5756 5754 5751 5748 5745 5743 5740 5737 5733 5730 5728 5725 5722 5719 5716 5714 5711 5708 5705 5703 5701 5698 5696 5694
5763 5765 5766 5768 5769 5770 5770 5771 5771 5771 5771 5770 5770 5769 5768 5766 5765 5763 5761 5759 5757 5755 5752 5750 5747 5744 5741 5738 5735 5732 5729 5726 5723 5720 5718 5715 5712 5709 5706 5704 5701 5699 5696 5694
5761 5763 5765 5766 5768 5769 5770 5770 5770 5770 5770 5770 5770 5769 5768 5767 5765 5764 5762 5760 5758 5756 5753 5751 5748 5745 5742 5739 5736 5733 5730 5727 5724 5722 5719 5716 5713 5710 5707 5704 5702 5699 5697 5694
5759 5762 5763 5765 5766 5768 5769 5769 5770 5770 5770 5770 5770 5769 5768 5767 5766 5764 5763 5761 5759 5757 5754 5752 5749 5746 5743 5740 5737 5734 5731 5728 5725 5722 5719 5716 5713 5710 5708 5705 5702 5700 5697 5695
5757 5760 5762 5764 5766 5767 5768 5769 5769 5770 5770 5770 5770 5769 5768 5767 5766 5765 5763 5761 5759 5757 5755 5752 5749 5747 5744 5741 5737 5735 5732 5729 5726 5723 5720 5717 5713 5711 5708 5705 5702 5700 5697 5694
5756 5758 5761 5763 5765 5767 5768 5769 5769 5770 5770 5770 5770 5769 5769 5768 5766 5765 5764 5762 5760 5757 5755 5752 5750 5747 5744 5741 5738 5735 5732 5729 5726 5723 5719 5716 5713 5710 5708 5705 5702 5699 5696 5694
5755 5758 5760 5763 5765 5766 5768 5769 5769 5770 5770 5770 5770 5770 5769 5768 5767 5765 5764 5762 5760 5757 5755 5753 5750 5747 5744 5741 5738 5735 5731 5728 5725 5722 5719 5716 5713 5710 5707 5704 5701 5698 5695 5692
5754 5757 5760 5763 5764 5766 5768 5769 5770 5770 5770 5770 5770 5770 5769 5768 5767 5765 5764 5762 5760 5757 5755 5753 5750 5747 5744 5741 5737 5734 5731 5728 5724 5721 5718 5715 5711 5708 5705 5702 5699 5695 5692 5689
5754 5757 5760 5763 5764 5766 5768 5769 5770 5770 5770 5770 5770 5770 5769 5768 5767 5765 5763 5762 5759 5757 5755 5752 5749 5746 5743 5740 5736 5733 5730 5726 5723 5720 5716 5713 5709 5706 5702 5699 5695 5692 5689 5685
5755 5758 5760 5763 5765 5766 5768 5769 5770 5770 5771 5771 5770 5770 5769 5768 5766 5765 5763 5761 5759 5756 5754 5751 5748 5745 5742 5739 5735 5732 5728 5725 5721 5717 5714 5710 5706 5702 5698 5695 5691 5687 5684 5680
5756 5758 5761 5763 5765 5767 5768 5769 5770 5770 5770 5770 5770 5769 5768 5767 5766 5764 5762 5760 5758 5755 5753 5750 5747 5744 5740 5737 5733 5730 5726 5722 5718 5714 5710 5706 5702 5698 5694 5690 5686 5682 5678 5674
5756 5758 5761 5763 5765 5766 5768 5769 5769 5770 5770 5770 5769 5769 5768 5766 5765 5763 5761 5759 5756 5754 5751 5748 5745 5742 5738 5735 5731 5727 5723 5719 5715 5711 5706 5702 5698 5693 5689 5685 5680 5676 5672 5668